Location: Courçay
(47.2523°N, 0.8761°E)
Time: 01:14:07
(UTC+00:00)

Landsat 7 - Visible Passes

Search period start: 11 February 2026 00:00
Search period end: 21 February 2026 00:00
Orbit: 680 x 682 km, 97.9° (Epoch: 10 February)

Date Brightness Start Highest point End Pass type
(mag) Time Alt. Az. Time Alt. Az. Time Alt. Az.
11 Feb 7.0 05:04:17 10° NE 05:06:55 15° E 05:09:33 10° ESE visible
11 Feb 4.9 17:46:05 10° S 17:50:36 50° W 17:55:09 10° NNW visible
12 Feb 5.8 05:39:13 10° NNE 05:43:22 31° E 05:47:31 10° SSE visible
12 Feb 6.5 18:23:14 10° SW 18:26:56 23° W 18:30:39 10° NW visible
13 Feb 4.2 06:14:58 10° NNE 06:19:38 70° ESE 06:24:15 10° S visible
13 Feb 7.5 19:02:34 10° W 19:03:28 10° W 19:04:23 10° WNW visible
14 Feb 6.7 05:14:43 10° NE 05:18:01 19° E 05:21:18 10° SE visible
14 Feb 5.5 17:57:16 10° SSW 18:01:37 39° W 18:05:59 10° NNW visible
15 Feb 5.3 05:50:01 10° NNE 05:54:24 40° E 05:58:47 10° SSE visible
15 Feb 6.9 18:34:48 10° SW 18:38:01 18° W 18:41:15 10° NW visible
16 Feb 7.3 04:51:23 10° ENE 04:52:33 11° E 04:53:44 10° E visible
16 Feb 3.8 06:25:54 10° NNE 06:30:36 89° ESE 06:35:15 10° SSW visible
17 Feb 6.3 05:25:19 10° NE 05:29:05 24° E 05:32:50 10° SSE visible
17 Feb 6.0 18:08:32 10° SSW 18:12:38 31° W 18:16:46 10° NNW visible
18 Feb 4.8 06:00:51 10° NNE 06:05:24 51° E 06:09:56 10° S visible
18 Feb 7.1 18:46:34 10° WSW 18:49:05 14° W 18:51:38 10° NW visible
19 Feb 7.1 05:01:11 10° NE 05:03:40 14° E 05:06:08 10° ESE visible
20 Feb 5.9 05:36:00 10° NNE 05:40:07 30° E 05:44:12 10° SSE visible
20 Feb 6.5 18:19:54 10° SSW 18:23:40 24° W 18:27:28 10° NW visible
